Weather Roundup
Issued by NWS Springfield, MO

Home | Current Version | Previous Version | Text Only | Print | Product List | Glossary On
Versions: 1 2 3 4 5 6 7 8 9 10 11 12 13 14 15 16 17 18 19 20 21 22 23 24 25 26 27 28 29 30 31 32 33 34 35 36 37 38 39 40 41 42 43 44 45 46 47 48 49 50
000
NZUS99 KSGF 230207
HRRSGF

HOURLY WEATHER
NATIONAL WEATHER SERVICE SPRINGFIELD MO
900 PM CDT FRI SEP 22 2017

......SGF CWA......

CITY           SKY/WX    TMP DP  RH WIND       PRES   REMARKS
SPRINGFIELD    CLEAR     75  67  76 SE5       29.99R
JOPLIN         CLEAR     78  68  71 SE5       29.97R
WEST PLAINS    CLEAR     74  66  76 CALM      30.04R
ROLLA          CLEAR     78  64  61 SE8       30.02R
OSAGE BEACH    CLEAR     74  69  85 CALM      30.00R
BRANSON        PTCLDY    79  63  57 S5        30.01R

......SURROUNDING SGF CWA......

CITY           SKY/WX    TMP DP  RH WIND       PRES   REMARKS
CHANUTE        CLEAR     76  68  76 SE7       29.94R
PARSONS        CLEAR     77  68  73 E3        29.95R
COFFEYVILLE    CLEAR     77  68  73 SE6       29.93R
EMPORIA        CLEAR     78  67  68 SE13      29.91R
GROVE OK       CLEAR     77  70  78 CALM      29.96S
ROGERS AR      CLEAR     76  68  76 SE5       30.01R
SILOAM SPRINGS CLEAR     77  67  71 E7        29.99R
HARRISON AR    CLEAR     78  65  63 S5        30.02R
NEAR YELLVILLE CLEAR     79  68  69 CALM      30.00R

......KANSAS AND MISSOURI......

CITY           SKY/WX    TMP DP  RH WIND       PRES   REMARKS
KANSAS CTY INT PTCLDY    76  69  79 S9        29.94S
DOWNTOWN KC    CLEAR     84  70  62 SE8       29.93R
COLUMBIA       CLEAR     80  69  69 E6        29.99R HAZE
SEDALIA        CLEAR     77  70  79 SE5       29.99R
ST JOSEPH      CLEAR     79  70  74 S8        29.92R
ST LOUIS       CLEAR     86  62  44 SE8       30.00R
SPIRIT OF STL  CLEAR     73  69  87 CALM      29.98R
KIRKSVILLE     CLEAR     72  65  78 SE6       29.99S
WICHITA        CLEAR     81  69  67 S15       29.89R
TOPEKA         CLEAR     80  70  71 SE10      29.90S
OLATHE         CLEAR     76  70  82 S8        29.95S

......TENNESSEE......

CITY           SKY/WX    TMP DP  RH WIND       PRES   REMARKS
MEMPHIS        PTCLDY    83  68  60 E3        29.99R
NASHVILLE      CLEAR     80  67  64 CALM      30.03R

......ARKANSAS.......

CITY           SKY/WX    TMP DP  RH WIND       PRES   REMARKS
FAYETTEVILLE   CLEAR     71  69  93 CALM      29.99R
FT SMITH       CLEAR     84  69  60 SE5       29.94R
LITTLE ROCK    CLEAR     78  72  81 CALM      29.96R

......OKLAHOMA.......

CITY           SKY/WX    TMP DP  RH WIND       PRES   REMARKS
TULSA          CLEAR     80  68  66 SE5       29.91R
PONCA CITY     CLEAR     81  67  62 SE14      29.90R
MCALESTER      CLEAR     79  65  62 S5        29.94R
OKLAHOMA CITY  PTCLDY    79  66  64 SE10      29.91R

......IOWA............

CITY           SKY/WX    TMP DP  RH WIND       PRES   REMARKS
DES MOINES     PTCLDY    80  67  64 SE9       29.92R
QUAD CITIES    CLEAR     74  66  76 CALM      29.99R

......ILLINOIS........

CITY           SKY/WX    TMP DP  RH WIND       PRES   REMARKS
QUINCY         CLEAR     78  64  61 SE6       30.00R
CHICAGO        CLEAR     82  66  58 SE9       30.02S




USA.gov is the U.S. government's official web portal to all federal, state and local government web resources and services.